SAS667 LWSK-ESGG

Flight info

Callsign SAS667
Flight time 2h 41m
Altitude 34000
Route SIN DCT RAXAD DCT VAGEN DCT NII DCT RAVAK DCT PARAK/N0447F360 DCT PATAK DCT REGLI DCT KOLOB DCT NILEN L617 ARQUS
Aircraft A321/M-SDE3FGHIRWY/LB1

Departure

Time 2026-05-05 17:05
Airport Skopje International Airport (LWSK)

Arrival

Time 2026-05-05 19:47
Airport Göteborg Landvetter Airport (ESGG)
Time Latitude Longitude Altitude Speed Heading
2026-05-05 16:52 41.95960 21.62622 783 ft 0 kts 39°
2026-05-05 16:58 41.95956 21.62619 783 ft 3 kts 45°
2026-05-05 16:59 41.95945 21.62597 810 ft 3 kts 81°
2026-05-05 16:59 41.95946 21.62571 783 ft 3 kts 117°
2026-05-05 16:59 41.95951 21.62561 783 ft 0 kts 123°
2026-05-05 17:01 41.95949 21.62562 783 ft 1 kts 136°
2026-05-05 17:01 41.95922 21.62530 783 ft 11 kts 224°
2026-05-05 17:02 41.95821 21.62537 782 ft 17 kts 167°
2026-05-05 17:02 41.95699 21.62575 781 ft 19 kts 166°
2026-05-05 17:02 41.95588 21.62617 780 ft 15 kts 163°
2026-05-05 17:02 41.95481 21.62660 780 ft 17 kts 163°
2026-05-05 17:03 41.95366 21.62706 779 ft 18 kts 163°
2026-05-05 17:03 41.95243 21.62754 778 ft 18 kts 167°
2026-05-05 17:03 41.95138 21.62690 778 ft 18 kts 242°
2026-05-05 17:03 41.95120 21.62620 779 ft 9 kts 256°
2026-05-05 17:04 41.95117 21.62604 779 ft 3 kts 256°
2026-05-05 17:04 41.95111 21.62537 780 ft 10 kts 274°
2026-05-05 17:04 41.95140 21.62498 779 ft 0 kts 340°
2026-05-05 17:04 41.95277 21.62440 780 ft 62 kts 344°
2026-05-05 17:05 41.95967 21.62209 783 ft 139 kts 345°
2026-05-05 17:05 41.97086 21.61826 1043 ft 179 kts 346°
2026-05-05 17:05 41.98274 21.61443 1989 ft 176 kts 346°
2026-05-05 17:05 41.99532 21.61019 2612 ft 197 kts 346°
2026-05-05 17:06 42.00904 21.60389 3113 ft 220 kts 333°
2026-05-05 17:06 42.02169 21.59135 3742 ft 231 kts 314°
2026-05-05 17:06 42.03076 21.57338 4518 ft 234 kts 294°
2026-05-05 17:06 42.03482 21.55224 5322 ft 235 kts 275°
2026-05-05 17:07 42.03326 21.53037 6097 ft 237 kts 255°
2026-05-05 17:07 42.02630 21.51052 6721 ft 246 kts 236°
2026-05-05 17:07 42.01362 21.49389 6961 ft 267 kts 212°
2026-05-05 17:07 41.99585 21.48498 7386 ft 280 kts 188°
2026-05-05 17:08 41.97630 21.48312 8030 ft 283 kts 184°
2026-05-05 17:08 41.95657 21.48155 8723 ft 285 kts 185°
2026-05-05 17:08 41.93670 21.47996 9411 ft 287 kts 185°
2026-05-05 17:08 41.91671 21.47829 10067 ft 289 kts 185°
2026-05-05 17:09 41.89643 21.47344 10315 ft 306 kts 200°
2026-05-05 17:09 41.87574 21.46341 10444 ft 327 kts 202°
2026-05-05 17:09 41.85344 21.45455 10706 ft 342 kts 186°
2026-05-05 17:09 41.82978 21.45899 11128 ft 352 kts 158°
2026-05-05 17:10 41.80984 21.47792 11666 ft 357 kts 130°
2026-05-05 17:10 41.79813 21.50710 12193 ft 360 kts 103°
2026-05-05 17:10 41.79733 21.54038 12725 ft 361 kts 77°
2026-05-05 17:10 41.80713 21.57119 13267 ft 362 kts 58°
2026-05-05 17:11 41.82009 21.60017 13857 ft 364 kts 58°
2026-05-05 17:11 41.83318 21.62933 14389 ft 366 kts 58°
2026-05-05 17:11 41.84402 21.66037 14890 ft 370 kts 68°
2026-05-05 17:11 41.85430 21.69207 15374 ft 372 kts 56°
2026-05-05 17:12 41.87132 21.71806 15861 ft 372 kts 39°
2026-05-05 17:12 41.89096 21.74090 16370 ft 375 kts 39°
2026-05-05 17:12 41.91069 21.76400 16870 ft 378 kts 39°
2026-05-05 17:12 41.93051 21.78742 17361 ft 381 kts 40°
2026-05-05 17:13 41.95043 21.81113 17882 ft 383 kts 40°
2026-05-05 17:13 41.97041 21.83497 18365 ft 385 kts 40°
2026-05-05 17:13 41.99042 21.85899 18802 ft 387 kts 40°
2026-05-05 17:13 42.01050 21.88320 19248 ft 389 kts 40°
2026-05-05 17:14 42.03067 21.90754 19686 ft 391 kts 40°
2026-05-05 17:14 42.05096 21.93196 20119 ft 393 kts 39°
2026-05-05 17:14 42.07199 21.95544 20544 ft 392 kts 31°
2026-05-05 17:14 42.09647 21.97105 20964 ft 390 kts 14°
2026-05-05 17:15 42.12312 21.97738 21370 ft 389 kts
2026-05-05 17:15 42.15004 21.98188 21793 ft 391 kts
2026-05-05 17:15 42.17711 21.98629 22216 ft 392 kts
2026-05-05 17:15 42.20423 21.99070 22632 ft 394 kts
2026-05-05 17:16 42.23153 21.99518 23054 ft 396 kts
2026-05-05 17:16 42.25890 21.99973 23474 ft 397 kts
2026-05-05 17:16 42.28641 22.00431 23804 ft 399 kts
2026-05-05 17:16 42.31408 22.00890 24131 ft 401 kts
2026-05-05 17:17 42.34182 22.01353 24488 ft 403 kts
2026-05-05 17:17 42.36970 22.01816 24832 ft 404 kts
2026-05-05 17:17 42.39766 22.02283 25172 ft 406 kts
2026-05-05 17:17 42.42571 22.02757 25496 ft 407 kts
2026-05-05 17:18 42.45389 22.03234 25815 ft 408 kts
2026-05-05 17:18 42.48217 22.03711 26104 ft 411 kts
2026-05-05 17:18 42.51059 22.04113 26434 ft 410 kts 358°
2026-05-05 17:18 42.53846 22.03754 26728 ft 408 kts 348°
2026-05-05 17:19 42.56650 22.03119 27040 ft 409 kts 348°
2026-05-05 17:19 42.59464 22.02468 27363 ft 410 kts 348°
2026-05-05 17:19 42.62282 22.01810 27691 ft 412 kts 348°
2026-05-05 17:19 42.65109 22.01148 28005 ft 413 kts 347°
2026-05-05 17:20 42.67948 22.00485 28328 ft 414 kts 348°
2026-05-05 17:20 42.70793 21.99825 28634 ft 416 kts 347°
2026-05-05 17:20 42.73652 21.99162 28903 ft 417 kts 347°
2026-05-05 17:20 42.76518 21.98496 29192 ft 419 kts 347°
2026-05-05 17:21 42.79393 21.97826 29472 ft 420 kts 347°
2026-05-05 17:21 42.82277 21.97150 29761 ft 421 kts 347°
2026-05-05 17:21 42.85165 21.96472 30029 ft 422 kts 347°
2026-05-05 17:22 42.90977 21.95104 30432 ft 425 kts 347°
2026-05-05 17:22 42.93892 21.94422 30664 ft 425 kts 347°
2026-05-05 17:22 42.96802 21.93744 30935 ft 424 kts 347°
2026-05-05 17:22 42.99711 21.93061 31192 ft 424 kts 347°
2026-05-05 17:23 43.02611 21.92375 31455 ft 423 kts 347°
2026-05-05 17:23 43.05511 21.91688 31684 ft 423 kts 347°
2026-05-05 17:23 43.08409 21.91000 31874 ft 424 kts 347°
2026-05-05 17:23 43.11315 21.90318 32126 ft 423 kts 347°
2026-05-05 17:24 43.14215 21.89640 32389 ft 422 kts 347°
2026-05-05 17:24 43.17074 21.88972 32649 ft 422 kts 347°
2026-05-05 17:24 43.19963 21.88292 32907 ft 421 kts 347°
2026-05-05 17:24 43.22847 21.87609 33162 ft 421 kts 347°
2026-05-05 17:25 43.25727 21.86925 33430 ft 420 kts 347°
2026-05-05 17:25 43.27675 21.86460 33589 ft 420 kts 347°
2026-05-05 17:25 43.31487 21.85545 33898 ft 420 kts 347°
2026-05-05 17:26 43.36921 21.82988 33975 ft 410 kts 333°
2026-05-05 17:26 43.42080 21.79702 33975 ft 408 kts 333°
2026-05-05 17:27 43.47243 21.76428 33980 ft 409 kts 334°
2026-05-05 17:27 43.52423 21.73140 33970 ft 410 kts 334°
2026-05-05 17:28 43.57604 21.69834 33972 ft 410 kts 334°
2026-05-05 17:28 43.62781 21.66515 33975 ft 411 kts 333°
2026-05-05 17:29 43.67963 21.63189 33961 ft 411 kts 333°
2026-05-05 17:29 43.73185 21.59961 33974 ft 412 kts 335°
2026-05-05 17:30 43.78474 21.56884 33964 ft 412 kts 335°
2026-05-05 17:30 43.83736 21.53830 33970 ft 413 kts 335°
2026-05-05 17:31 43.89020 21.50702 33972 ft 413 kts 335°
2026-05-05 17:31 43.94303 21.47544 33970 ft 414 kts 334°
2026-05-05 17:32 43.99585 21.44376 33963 ft 414 kts 334°
2026-05-05 17:32 44.04883 21.41213 33971 ft 414 kts 335°
2026-05-05 17:33 44.10184 21.38049 33973 ft 414 kts 334°
2026-05-05 17:33 44.15477 21.34869 33972 ft 415 kts 335°
2026-05-05 17:34 44.20783 21.31675 33959 ft 416 kts 335°
2026-05-05 17:34 44.26099 21.28474 33942 ft 416 kts 334°
2026-05-05 17:35 44.31414 21.25255 33960 ft 417 kts 334°
2026-05-05 17:35 44.36685 21.22068 33964 ft 417 kts 335°
2026-05-05 17:36 44.42069 21.18801 33956 ft 418 kts 335°
2026-05-05 17:36 44.47405 21.15563 33950 ft 418 kts 335°
2026-05-05 17:37 44.52751 21.12325 33949 ft 418 kts 334°
2026-05-05 17:37 44.58054 21.09088 33952 ft 419 kts 334°
2026-05-05 17:38 44.63398 21.05802 33956 ft 419 kts 335°
2026-05-05 17:38 44.68752 21.02522 33959 ft 420 kts 335°
2026-05-05 17:39 44.74115 20.99250 33959 ft 420 kts 335°
2026-05-05 17:39 44.79474 20.95956 33959 ft 420 kts 334°
2026-05-05 17:40 44.84818 20.92638 33946 ft 420 kts 334°
2026-05-05 17:40 44.90172 20.89322 33942 ft 421 kts 334°
2026-05-05 17:41 44.95540 20.86026 33947 ft 421 kts 334°
2026-05-05 17:41 45.00908 20.82708 33949 ft 421 kts 334°
2026-05-05 17:42 45.06266 20.79373 33963 ft 421 kts 334°
2026-05-05 17:42 45.11629 20.76032 33955 ft 421 kts 334°
2026-05-05 17:43 45.16993 20.72688 33950 ft 421 kts 334°
2026-05-05 17:43 45.22358 20.69342 33952 ft 421 kts 334°
2026-05-05 17:44 45.27723 20.65981 33954 ft 421 kts 334°
2026-05-05 17:44 45.33087 20.62613 33960 ft 422 kts 334°
2026-05-05 17:45 45.38414 20.59264 33955 ft 422 kts 334°
2026-05-05 17:45 45.43776 20.55885 33954 ft 421 kts 333°
2026-05-05 17:46 45.49132 20.52497 33955 ft 422 kts 333°
2026-05-05 17:46 45.54498 20.49106 33955 ft 422 kts 334°
2026-05-05 17:47 45.59865 20.45700 33951 ft 422 kts 333°
2026-05-05 17:47 45.65233 20.42283 33949 ft 422 kts 333°
2026-05-05 17:48 45.70602 20.38863 33948 ft 422 kts 333°
2026-05-05 17:48 45.75981 20.35437 33936 ft 424 kts 333°
2026-05-05 17:49 45.81371 20.31993 33933 ft 424 kts 333°
2026-05-05 17:49 45.86764 20.28536 33935 ft 425 kts 333°
2026-05-05 17:50 45.92161 20.25073 33945 ft 425 kts 333°
2026-05-05 17:50 45.97555 20.21606 33940 ft 425 kts 333°
2026-05-05 17:51 46.02945 20.18123 33941 ft 425 kts 333°
2026-05-05 17:51 46.08343 20.14632 33932 ft 425 kts 333°
2026-05-05 17:52 46.13745 20.11144 33930 ft 426 kts 333°
2026-05-05 17:52 46.19262 20.08008 33931 ft 427 kts 338°
2026-05-05 17:53 46.24897 20.05252 33944 ft 427 kts 339°
2026-05-05 17:53 46.30533 20.02501 33945 ft 427 kts 339°
2026-05-05 17:54 46.35211 20.00207 33939 ft 427 kts 339°
2026-05-05 17:54 46.40839 19.97440 33936 ft 427 kts 339°
2026-05-05 17:55 46.46468 19.94671 33950 ft 427 kts 339°
2026-05-05 17:55 46.52098 19.91891 33932 ft 428 kts 339°
2026-05-05 17:56 46.57727 19.89096 33928 ft 428 kts 339°
2026-05-05 17:56 46.63365 19.86292 33926 ft 428 kts 339°
2026-05-05 17:57 46.69003 19.83494 33933 ft 428 kts 339°
2026-05-05 17:57 46.74649 19.80694 33931 ft 429 kts 339°
2026-05-05 17:58 46.80260 19.77895 33927 ft 429 kts 339°
2026-05-05 17:58 46.85912 19.75057 33926 ft 430 kts 339°
2026-05-05 17:59 46.91602 19.72199 33927 ft 430 kts 339°
2026-05-05 17:59 46.97225 19.69369 33929 ft 430 kts 339°
2026-05-05 18:00 47.02887 19.66509 33919 ft 431 kts 339°
2026-05-05 18:00 47.08548 19.63641 33931 ft 431 kts 339°
2026-05-05 18:01 47.14218 19.60777 33933 ft 431 kts 339°
2026-05-05 18:01 47.19890 19.57915 33931 ft 431 kts 339°
2026-05-05 18:02 47.25552 19.55038 33934 ft 431 kts 338°
2026-05-05 18:02 47.31215 19.52150 33932 ft 431 kts 338°
2026-05-05 18:03 47.36881 19.49259 33937 ft 431 kts 338°
2026-05-05 18:03 47.42545 19.46361 33941 ft 431 kts 338°
2026-05-05 18:04 47.48215 19.43440 33936 ft 432 kts 339°
2026-05-05 18:04 47.53894 19.40530 33934 ft 432 kts 339°
2026-05-05 18:05 47.59573 19.37608 33932 ft 432 kts 338°
2026-05-05 18:05 47.65215 19.34689 33935 ft 432 kts 339°
2026-05-05 18:06 47.70898 19.31747 33934 ft 432 kts 338°
2026-05-05 18:06 47.76577 19.28797 33934 ft 432 kts 338°
2026-05-05 18:07 47.82255 19.25833 33928 ft 433 kts 338°
2026-05-05 18:07 47.87944 19.22866 33920 ft 433 kts 339°
2026-05-05 18:08 47.93636 19.19905 33925 ft 434 kts 338°
2026-05-05 18:08 47.99336 19.16916 33922 ft 434 kts 338°
2026-05-05 18:09 48.05039 19.13916 33925 ft 435 kts 338°
2026-05-05 18:09 48.10737 19.10876 33927 ft 434 kts 338°
2026-05-05 18:10 48.16402 19.07717 33921 ft 434 kts 337°
2026-05-05 18:10 48.22059 19.04519 33913 ft 435 kts 337°
2026-05-05 18:11 48.27730 19.01338 33903 ft 435 kts 337°
2026-05-05 18:11 48.33411 18.98159 33907 ft 436 kts 337°
2026-05-05 18:12 48.39098 18.94981 33918 ft 436 kts 337°
2026-05-05 18:12 48.44792 18.91791 33914 ft 437 kts 337°
2026-05-05 18:13 48.50485 18.88579 33925 ft 437 kts 336°
2026-05-05 18:13 48.56170 18.85356 33917 ft 436 kts 337°
2026-05-05 18:14 48.61819 18.82163 33917 ft 436 kts 337°
2026-05-05 18:14 48.67496 18.78939 33914 ft 436 kts 337°
2026-05-05 18:15 48.73178 18.75698 33896 ft 436 kts 337°
2026-05-05 18:15 48.78862 18.72448 33895 ft 437 kts 336°
2026-05-05 18:16 48.84547 18.69191 33900 ft 437 kts 336°
2026-05-05 18:16 48.90229 18.65932 33903 ft 437 kts 336°
2026-05-05 18:17 48.95918 18.62674 33893 ft 437 kts 336°
2026-05-05 18:17 49.01603 18.59399 33876 ft 437 kts 337°
2026-05-05 18:18 49.07293 18.56116 33878 ft 437 kts 336°
2026-05-05 18:18 49.12981 18.52818 33879 ft 437 kts 337°
2026-05-05 18:19 49.18666 18.49509 33871 ft 438 kts 337°
2026-05-05 18:19 49.24362 18.46196 33893 ft 437 kts 336°
2026-05-05 18:20 49.30042 18.42893 33870 ft 437 kts 337°
2026-05-05 18:20 49.35722 18.39569 33882 ft 437 kts 338°
2026-05-05 18:21 49.41392 18.36230 33873 ft 436 kts 337°
2026-05-05 18:21 49.47070 18.32890 33832 ft 437 kts 337°
2026-05-05 18:22 49.52748 18.29555 33829 ft 437 kts 336°
2026-05-05 18:22 49.58424 18.26204 33830 ft 437 kts 337°
2026-05-05 18:23 49.64100 18.22840 33836 ft 437 kts 336°
2026-05-05 18:23 49.69766 18.19459 33819 ft 436 kts 336°
2026-05-05 18:24 49.75431 18.16094 33820 ft 436 kts 337°
2026-05-05 18:24 49.81095 18.12721 33826 ft 436 kts 337°
2026-05-05 18:25 49.86765 18.09338 33830 ft 436 kts 337°
2026-05-05 18:25 49.92432 18.05943 33830 ft 436 kts 336°
2026-05-05 18:26 49.98094 18.02535 33826 ft 436 kts 336°
2026-05-05 18:26 50.03750 17.99124 33822 ft 436 kts 337°
2026-05-05 18:27 50.09403 17.95853 33814 ft 436 kts 338°
2026-05-05 18:27 50.15110 17.92652 33812 ft 436 kts 338°
2026-05-05 18:28 50.23664 17.87805 33809 ft 436 kts 338°
2026-05-05 18:28 50.29353 17.84548 33805 ft 435 kts 338°
2026-05-05 18:29 50.35028 17.81281 33802 ft 435 kts 338°
2026-05-05 18:29 50.40704 17.78001 33789 ft 435 kts 337°
2026-05-05 18:30 50.46392 17.74714 33788 ft 436 kts 337°
2026-05-05 18:30 50.52091 17.71424 33789 ft 436 kts 337°
2026-05-05 18:31 50.57781 17.68122 33792 ft 436 kts 337°
2026-05-05 18:31 50.63469 17.64819 33785 ft 435 kts 337°
2026-05-05 18:32 50.69152 17.61500 33786 ft 436 kts 337°
2026-05-05 18:32 50.74834 17.58175 33793 ft 436 kts 336°
2026-05-05 18:33 50.80522 17.54833 33778 ft 437 kts 336°
2026-05-05 18:33 50.86221 17.51482 33778 ft 437 kts 336°
2026-05-05 18:34 50.91926 17.48122 33780 ft 438 kts 336°
2026-05-05 18:34 50.97629 17.44752 33792 ft 438 kts 336°
2026-05-05 18:35 51.03294 17.41383 33798 ft 438 kts 337°
2026-05-05 18:35 51.08996 17.37994 33800 ft 438 kts 337°
2026-05-05 18:36 51.14699 17.34599 33800 ft 437 kts 337°
2026-05-05 18:36 51.20394 17.31204 33817 ft 437 kts 337°
2026-05-05 18:37 51.26082 17.27790 33819 ft 436 kts 336°
2026-05-05 18:37 51.31764 17.24382 33816 ft 436 kts 336°
2026-05-05 18:38 51.37441 17.20969 33816 ft 436 kts 336°
2026-05-05 18:38 51.43111 17.17552 33816 ft 435 kts 336°
2026-05-05 18:39 51.48774 17.14119 33819 ft 435 kts 336°
2026-05-05 18:39 51.54434 17.10673 33829 ft 434 kts 335°
2026-05-05 18:40 51.60081 17.07221 33817 ft 435 kts 335°
2026-05-05 18:40 51.65750 17.03759 33812 ft 437 kts 336°
2026-05-05 18:41 51.71441 17.00310 33811 ft 438 kts 335°
2026-05-05 18:41 51.77137 16.96821 33820 ft 438 kts 335°
2026-05-05 18:42 51.81867 16.93904 33836 ft 437 kts 335°
2026-05-05 18:42 51.88467 16.89826 33835 ft 437 kts 335°
2026-05-05 18:43 51.93223 16.86886 33834 ft 436 kts 335°
2026-05-05 18:43 51.98893 16.83375 33861 ft 436 kts 335°
2026-05-05 18:44 52.04557 16.79848 33852 ft 436 kts 335°
2026-05-05 18:44 52.10208 16.76325 33864 ft 435 kts 334°
2026-05-05 18:45 52.15849 16.72803 33862 ft 434 kts 334°
2026-05-05 18:45 52.21481 16.69281 33860 ft 433 kts 334°
2026-05-05 18:46 52.27106 16.65745 33863 ft 433 kts 334°
2026-05-05 18:46 52.32724 16.62204 33860 ft 433 kts 334°
2026-05-05 18:47 52.38341 16.58654 33871 ft 432 kts 334°
2026-05-05 18:47 52.43918 16.55128 33853 ft 432 kts 334°
2026-05-05 18:48 52.49529 16.51569 33847 ft 432 kts 334°
2026-05-05 18:48 52.55134 16.47988 33850 ft 432 kts 334°
2026-05-05 18:49 52.60741 16.44394 33873 ft 432 kts 333°
2026-05-05 18:49 52.66344 16.40813 33878 ft 432 kts 333°
2026-05-05 18:50 52.71941 16.37220 33881 ft 431 kts 333°
2026-05-05 18:50 52.77529 16.33622 33879 ft 431 kts 333°
2026-05-05 18:51 52.83110 16.30022 33898 ft 430 kts 333°
2026-05-05 18:51 52.88681 16.26405 33906 ft 429 kts 332°
2026-05-05 18:52 52.94216 16.22809 33888 ft 426 kts 332°
2026-05-05 18:52 52.99733 16.19208 33883 ft 426 kts 332°
2026-05-05 18:53 53.05251 16.15608 33889 ft 426 kts 332°
2026-05-05 18:53 53.10767 16.12006 33885 ft 426 kts 332°
2026-05-05 18:54 53.16276 16.08401 33898 ft 425 kts 332°
2026-05-05 18:54 53.21782 16.04776 33898 ft 425 kts 332°
2026-05-05 18:55 53.27281 16.01139 33896 ft 425 kts 331°
2026-05-05 18:55 53.32782 15.97496 33890 ft 425 kts 331°
2026-05-05 18:56 53.38285 15.93844 33888 ft 426 kts 331°
2026-05-05 18:56 53.43789 15.90178 33908 ft 426 kts 331°
2026-05-05 18:57 53.49257 15.86525 33908 ft 426 kts 331°
2026-05-05 18:57 53.54794 15.82819 33905 ft 425 kts 331°
2026-05-05 18:58 53.60290 15.79126 33905 ft 425 kts 331°
2026-05-05 18:58 53.65785 15.75419 33932 ft 426 kts 330°
2026-05-05 18:59 53.71245 15.71731 33921 ft 426 kts 330°
2026-05-05 18:59 53.76730 15.68014 33932 ft 424 kts 330°
2026-05-05 19:00 53.82209 15.64296 33928 ft 424 kts 330°
2026-05-05 19:00 53.87683 15.60565 33923 ft 424 kts 330°
2026-05-05 19:01 53.93156 15.56826 33924 ft 424 kts 330°
2026-05-05 19:01 53.98629 15.53084 33932 ft 424 kts 329°
2026-05-05 19:02 54.04094 15.49335 33943 ft 424 kts 329°
2026-05-05 19:02 54.09561 15.45577 33938 ft 423 kts 329°
2026-05-05 19:03 54.15008 15.41809 33934 ft 422 kts 329°
2026-05-05 19:03 54.20448 15.38028 33938 ft 422 kts 329°
2026-05-05 19:04 54.25892 15.34238 33934 ft 422 kts 329°
2026-05-05 19:04 54.31339 15.30452 33956 ft 422 kts 329°
2026-05-05 19:05 54.36744 15.26682 33948 ft 422 kts 329°
2026-05-05 19:05 54.42184 15.22870 33943 ft 422 kts 329°
2026-05-05 19:06 54.47624 15.19050 33937 ft 422 kts 328°
2026-05-05 19:06 54.53060 15.15212 33943 ft 423 kts 328°
2026-05-05 19:07 54.58502 15.11362 33975 ft 423 kts 329°
2026-05-05 19:07 54.63932 15.07520 33926 ft 421 kts 329°
2026-05-05 19:08 54.69353 15.03678 33921 ft 422 kts 329°
2026-05-05 19:08 54.74783 14.99821 33926 ft 422 kts 329°
2026-05-05 19:09 54.80212 14.95939 33935 ft 422 kts 328°
2026-05-05 19:09 54.85597 14.91924 33937 ft 420 kts 327°
2026-05-05 19:10 54.90873 14.87621 33948 ft 418 kts 327°
2026-05-05 19:10 54.96118 14.83228 33949 ft 420 kts 326°
2026-05-05 19:11 55.01409 14.78898 33943 ft 421 kts 327°
2026-05-05 19:11 55.06722 14.74592 33941 ft 421 kts 327°
2026-05-05 19:12 55.12032 14.70259 33942 ft 421 kts 327°
2026-05-05 19:12 55.17301 14.65937 33940 ft 421 kts 327°
2026-05-05 19:13 55.22610 14.61576 33943 ft 421 kts 327°
2026-05-05 19:13 55.27913 14.57190 33944 ft 421 kts 327°
2026-05-05 19:14 55.33209 14.52791 33944 ft 421 kts 327°
2026-05-05 19:14 55.38514 14.48389 33962 ft 422 kts 327°
2026-05-05 19:15 55.43826 14.43976 33951 ft 422 kts 327°
2026-05-05 19:15 55.49135 14.39534 33958 ft 423 kts 327°
2026-05-05 19:16 55.54460 14.35077 33953 ft 424 kts 327°
2026-05-05 19:16 55.59789 14.30596 33948 ft 424 kts 327°
2026-05-05 19:17 55.65120 14.26100 33944 ft 424 kts 327°
2026-05-05 19:17 55.70452 14.21593 33943 ft 425 kts 327°
2026-05-05 19:18 55.75785 14.17070 33984 ft 425 kts 328°
2026-05-05 19:18 55.81120 14.12492 33909 ft 426 kts 328°
2026-05-05 19:19 55.86479 14.07922 33929 ft 428 kts 328°
2026-05-05 19:19 55.91852 14.03337 33937 ft 428 kts 328°
2026-05-05 19:20 55.97223 13.98728 33944 ft 429 kts 328°
2026-05-05 19:20 56.02595 13.94091 33953 ft 429 kts 328°
2026-05-05 19:21 56.07971 13.89456 33979 ft 429 kts 328°
2026-05-05 19:21 56.13341 13.84811 33954 ft 428 kts 328°
2026-05-05 19:22 56.18702 13.80150 33970 ft 428 kts 328°
2026-05-05 19:22 56.24030 13.75506 33969 ft 428 kts 328°
2026-05-05 19:23 56.29387 13.70811 33969 ft 428 kts 328°
2026-05-05 19:23 56.34790 13.66065 33660 ft 427 kts 328°
2026-05-05 19:24 56.37412 13.63764 33180 ft 423 kts 327°
2026-05-05 19:24 56.40038 13.61460 32707 ft 417 kts 327°
2026-05-05 19:24 56.42634 13.59177 32214 ft 413 kts 327°
2026-05-05 19:24 56.45205 13.56910 31705 ft 409 kts 327°
2026-05-05 19:25 56.47750 13.54661 31199 ft 405 kts 327°
2026-05-05 19:25 56.50265 13.52428 30691 ft 401 kts 326°
2026-05-05 19:25 56.52756 13.50210 30217 ft 397 kts 326°
2026-05-05 19:25 56.55225 13.48010 29670 ft 394 kts 326°
2026-05-05 19:26 56.57670 13.45829 29114 ft 390 kts 326°
2026-05-05 19:26 56.60095 13.43667 28586 ft 386 kts 326°
2026-05-05 19:26 56.62502 13.41519 27951 ft 385 kts 326°
2026-05-05 19:26 56.64905 13.39368 27303 ft 384 kts 326°
2026-05-05 19:27 56.67300 13.37221 26717 ft 383 kts 326°
2026-05-05 19:27 56.69666 13.35101 26395 ft 375 kts 326°
2026-05-05 19:27 56.71996 13.33016 25970 ft 372 kts 326°
2026-05-05 19:27 56.74286 13.30881 25501 ft 367 kts 324°
2026-05-05 19:28 56.76501 13.28616 25032 ft 363 kts 322°
2026-05-05 19:28 56.78665 13.26283 24572 ft 359 kts 321°
2026-05-05 19:28 56.80796 13.23937 24119 ft 357 kts 321°
2026-05-05 19:28 56.82914 13.21607 23676 ft 354 kts 321°
2026-05-05 19:29 56.85024 13.19306 23176 ft 352 kts 321°
2026-05-05 19:29 56.87124 13.17038 22656 ft 350 kts 322°
2026-05-05 19:29 56.89212 13.14795 22142 ft 347 kts 322°
2026-05-05 19:29 56.91260 13.12605 21704 ft 344 kts 322°
2026-05-05 19:30 56.93319 13.10404 21280 ft 342 kts 322°
2026-05-05 19:30 56.95365 13.08218 20870 ft 340 kts 322°
2026-05-05 19:30 56.97397 13.06043 20502 ft 337 kts 322°
2026-05-05 19:30 56.99412 13.03877 20116 ft 334 kts 322°
2026-05-05 19:31 57.01412 13.01726 19712 ft 332 kts 322°
2026-05-05 19:31 57.03398 12.99582 19308 ft 330 kts 322°
2026-05-05 19:31 57.05365 12.97451 18863 ft 327 kts 322°
2026-05-05 19:31 57.07313 12.95339 18398 ft 324 kts 322°
2026-05-05 19:32 57.08627 12.93936 18056 ft 324 kts 324°
2026-05-05 19:32 57.10733 12.92346 17519 ft 331 kts 336°
2026-05-05 19:32 57.13692 12.90988 16821 ft 330 kts 338°
2026-05-05 19:32 57.15194 12.90311 16478 ft 328 kts 338°
2026-05-05 19:33 57.17405 12.89308 15970 ft 326 kts 338°
2026-05-05 19:33 57.19598 12.88308 15475 ft 324 kts 338°
2026-05-05 19:33 57.21777 12.87316 14989 ft 321 kts 339°
2026-05-05 19:33 57.23909 12.86345 14533 ft 319 kts 339°
2026-05-05 19:34 57.26053 12.85362 14057 ft 317 kts 339°
2026-05-05 19:34 57.28182 12.84380 13628 ft 314 kts 338°
2026-05-05 19:34 57.30290 12.83409 13156 ft 310 kts 339°
2026-05-05 19:35 57.34443 12.81498 12168 ft 305 kts 339°
2026-05-05 19:35 57.36493 12.80555 11696 ft 302 kts 340°
2026-05-05 19:35 57.38527 12.79616 11237 ft 300 kts 340°
2026-05-05 19:35 57.40538 12.78687 10969 ft 297 kts 340°
2026-05-05 19:36 57.42549 12.77755 10958 ft 299 kts 340°
2026-05-05 19:36 57.44562 12.76820 10816 ft 297 kts 341°
2026-05-05 19:36 57.46559 12.75894 10356 ft 295 kts 341°
2026-05-05 19:36 57.48542 12.74977 9946 ft 292 kts 342°
2026-05-05 19:37 57.50467 12.74088 9818 ft 278 kts 342°
2026-05-05 19:37 57.52319 12.73231 9248 ft 271 kts 342°
2026-05-05 19:37 57.54137 12.72384 8440 ft 268 kts 342°
2026-05-05 19:37 57.55943 12.71541 7649 ft 267 kts 342°
2026-05-05 19:38 57.57738 12.70700 6987 ft 266 kts 342°
2026-05-05 19:38 57.59528 12.69859 6536 ft 264 kts 343°
2026-05-05 19:38 57.61300 12.69028 6045 ft 262 kts 343°
2026-05-05 19:38 57.63062 12.68204 5550 ft 260 kts 344°
2026-05-05 19:39 57.64804 12.67327 5042 ft 258 kts 340°
2026-05-05 19:39 57.66484 12.66163 4525 ft 257 kts 340°
2026-05-05 19:39 57.68157 12.65019 4046 ft 255 kts 340°
2026-05-05 19:39 57.69820 12.63889 3585 ft 254 kts 340°
2026-05-05 19:40 57.71478 12.62763 3129 ft 252 kts 340°
2026-05-05 19:40 57.73098 12.61663 3006 ft 243 kts 340°
2026-05-05 19:40 57.74645 12.60609 3010 ft 233 kts 340°
2026-05-05 19:40 57.76140 12.59589 3009 ft 221 kts 340°
2026-05-05 19:41 57.77547 12.58623 3014 ft 213 kts 340°
2026-05-05 19:41 57.78927 12.57602 3013 ft 213 kts 333°
2026-05-05 19:41 57.80189 12.56142 3013 ft 213 kts 327°
2026-05-05 19:41 57.81428 12.54618 3014 ft 213 kts 327°
2026-05-05 19:42 57.82594 12.52917 3000 ft 213 kts 310°
2026-05-05 19:42 57.83263 12.50484 2717 ft 212 kts 282°
2026-05-05 19:42 57.83230 12.47765 2520 ft 211 kts 254°
2026-05-05 19:42 57.82561 12.45305 2513 ft 215 kts 237°
2026-05-05 19:43 57.81722 12.42972 2512 ft 216 kts 232°
2026-05-05 19:43 57.80619 12.41118 2510 ft 217 kts 211°
2026-05-05 19:43 57.79264 12.39846 2511 ft 218 kts 207°
2026-05-05 19:43 57.77928 12.38627 2506 ft 206 kts 207°
2026-05-05 19:44 57.76706 12.37508 2494 ft 186 kts 207°
2026-05-05 19:44 57.75593 12.36488 2313 ft 172 kts 207°
2026-05-05 19:44 57.74535 12.35519 2123 ft 167 kts 207°
2026-05-05 19:44 57.73497 12.34568 1882 ft 165 kts 207°
2026-05-05 19:45 57.72477 12.33644 1660 ft 158 kts 207°
2026-05-05 19:45 57.71525 12.32773 1437 ft 148 kts 208°
2026-05-05 19:45 57.70613 12.31936 1217 ft 144 kts 207°
2026-05-05 19:45 57.69716 12.31115 1014 ft 143 kts 208°
2026-05-05 19:46 57.68826 12.30305 820 ft 142 kts 206°
2026-05-05 19:46 57.67939 12.29501 636 ft 142 kts 207°
2026-05-05 19:46 57.67107 12.28732 514 ft 102 kts 206°
2026-05-05 19:46 57.66683 12.28352 512 ft 60 kts 206°
2026-05-05 19:47 57.66363 12.28054 511 ft 39 kts 206°
2026-05-05 19:47 57.66176 12.27930 509 ft 22 kts 165°
2026-05-05 19:47 57.66119 12.28145 509 ft 16 kts 62°
2026-05-05 19:47 57.66182 12.28213 510 ft 15 kts 36°
2026-05-05 19:48 57.66282 12.28323 511 ft 16 kts 27°
2026-05-05 19:48 57.66385 12.28420 511 ft 17 kts 26°
2026-05-05 19:48 57.66499 12.28522 512 ft 19 kts 25°
2026-05-05 19:48 57.66624 12.28633 512 ft 21 kts 26°
2026-05-05 19:49 57.66758 12.28755 513 ft 22 kts 26°
2026-05-05 19:49 57.66824 12.28830 513 ft 16 kts 49°
2026-05-05 19:49 57.66794 12.29042 516 ft 14 kts 117°
2026-05-05 19:49 57.66745 12.29201 516 ft 13 kts 117°
2026-05-05 19:50 57.66728 12.29265 516 ft 0 kts 115°